[[{"header":{"parameterUnit":"m.s-1","parameterCategory":1,"la1":30.2991,"la2":30.254,"lo1":-89.0895,"lo2":-89.0444,"dy":0.0017,"dx":0.0017,"nx":28,"ny":28,"refTime":"2024-10-11T21:00:00:Z","depth":0,"parameterNumber":2,"parameterNumberName":"U-component_of_WINDS"},"data":[0,0,0,0,0,0,0,0,0,0,0,0,0,0,0,0,0,0,0,0,0,0,0,0,0,0,0,0,0,0,0,0,0,0,0,0,0,0,0,0,0,0,0,0,0,0,0,0,0,0,0,0,0,0,0,0,0,0,-2.1476,-2.1475,0,-2.1419,-2.1418,-2.1418,-2.1344,-2.1343,-2.1342,-2.1341,-2.1283,-2.1282,-2.1282,0,0,0,0,0,0,0,0,0,0,0,0,0,-2.1524,-2.1523,-2.1476,-2.1475,-2.1475,-2.1419,-2.1418,-2.1417,-2.1344,-2.1343,-2.1341,-2.134,-2.1283,-2.1282,-2.1282,0,0,0,0,0,0,0,0,0,0,0,0,0,-2.1489,-2.1523,-2.1476,-2.1431,-2.1427,-2.1419,-2.1418,-2.1417,-2.1345,-2.1343,-2.1341,-2.1339,-2.1283,-2.1282,-2.1282,-2.1313,0,0,-2.128,-2.1279,0,0,0,0,0,0,0,0,-2.1491,-2.1487,-2.1439,-2.1435,-2.1429,-2.1387,-2.1414,-2.1382,-2.1345,-2.1376,-2.1341,-2.1339,-2.1319,-2.1315,-2.1308,-2.1311,-2.1308,-2.128,-2.1279,-2.1279,-2.1279,0,0,0,0,0,0,0,-2.1493,-2.1489,-2.1453,-2.1438,-2.1432,-2.1415,-2.1408,-2.1407,-2.1358,-2.1373,-2.1368,-2.1362,-2.1316,-2.1309,-2.1306,-2.1307,-2.128,-2.1279,-2.1279,-2.1278,-2.1336,-2.1338,0,0,0,0,0,0,-2.1502,-2.1491,-2.1455,-2.1452,-2.1456,-2.1415,-2.1408,-2.1402,-2.1358,-2.1349,-2.1363,-2.1359,-2.1311,-2.1307,-2.1304,-2.134,-2.1279,-2.1278,-2.1278,-2.1334,-2.1336,-2.1338,0,0,0,0,0,0,-2.1503,-2.15,-2.1457,-2.147,-2.1463,-2.1417,-2.1411,-2.1402,-2.1395,-2.1351,-2.1342,-2.1365,-2.131,-2.1305,-2.1312,-2.1337,-2.1278,-2.1277,-2.1332,-2.1335,-2.1337,-2.1412,0,0,0,0,0,0,-2.1505,-2.15,-2.1511,-2.1471,-2.1463,-2.1466,-2.1413,-2.1402,-2.1394,-2.1387,-2.135,-2.1342,-2.1308,-2.1314,-2.1312,-2.1335,-2.1277,-2.1329,-2.1333,-2.1336,-2.1407,-2.1417,-2.1426,0,0,0,0,0,-2.1507,-2.1534,-2.1512,-2.1508,-2.1476,-2.1468,-2.1463,-2.1423,-2.1396,-2.1408,-2.1379,-2.1343,-2.1335,-2.1315,-2.1312,-2.1336,-2.1328,-2.1332,-2.1336,-2.1403,-2.1415,-2.1425,0,0,0,0,0,0,-2.1578,-2.1528,-2.1503,-2.1518,-2.1498,-2.1455,-2.1468,-2.1437,-2.1424,-2.1418,-2.1369,-2.1361,-2.1375,-2.1356,-2.1335,-2.1366,-2.1326,-2.133,-2.1378,-2.1389,-2.1398,-2.1403,-2.1276,0,0,0,0,0,-2.1596,-2.1593,-2.1549,-2.1567,-2.1558,-2.1515,-2.151,-2.1481,-2.1458,-2.1449,-2.1421,-2.1401,-2.1394,-2.139,-2.1381,-2.1404,-2.1396,-2.1419,-2.1428,-2.1436,-2.1441,-2.1454,-2.1465,-2.1353,-2.1352,-2.1352,0,0,-2.1632,-2.1604,-2.1605,-2.1581,-2.1561,-2.1561,-2.1508,-2.1509,-2.1509,-2.1449,-2.1455,-2.1434,-2.1408,-2.1425,-2.143,-2.1409,-2.147,-2.1442,-2.1448,-2.1448,-2.146,-2.147,-2.148,-2.1355,-2.1355,-2.1354,0,0,-2.1698,-2.1676,-2.1689,-2.1671,-2.1643,-2.1615,-2.1619,-2.1581,-2.1565,-2.157,-2.1527,-2.1525,-2.1513,-2.1498,-2.1488,-2.1551,-2.1518,-2.1549,-2.1598,-2.1612,-2.1621,-2.1628,-2.1653,-2.1662,-2.1553,-2.1553,-2.1554,0,-2.1746,-2.1743,-2.1699,-2.1704,-2.1695,-2.1642,-2.1656,-2.1641,-2.1612,-2.1608,-2.1584,-2.157,-2.1549,-2.1562,-2.1577,-2.157,-2.1574,-2.1553,-2.1623,-2.163,-2.1636,-2.1659,-2.1669,-2.1558,-2.1557,-2.1557,-2.1556,0,-2.1805,-2.1804,-2.1818,-2.1792,-2.1785,-2.1794,-2.1753,-2.1751,-2.1723,-2.1698,-2.1705,-2.1678,-2.1663,-2.1664,-2.1636,-2.1674,-2.1662,-2.1632,-2.1591,-2.1652,-2.1673,-2.1681,-2.1563,-2.1562,-2.1561,-2.156,0,0,-2.1913,-2.1865,-2.1871,-2.186,-2.1826,-2.1825,-2.1832,-2.1819,-2.1819,-2.1801,-2.1808,-2.18,-2.1772,-2.1762,-2.1732,-2.1744,-2.1798,-2.1712,-2.171,-2.1731,-2.1841,-2.1866,-2.1877,-2.1776,-2.1778,-2.1779,-2.1844,0,-2.1974,-2.1984,-2.1947,-2.1967,-2.1967,-2.1918,-2.1925,-2.1906,-2.1883,-2.188,-2.1854,-2.185,-2.1813,-2.1806,-2.1816,-2.179,-2.182,-2.1784,-2.1783,-2.1784,-2.1793,-2.1887,-2.1913,-2.1976,-2.1852,-2.1853,-2.1854,0,-2.2046,-2.2033,-2.2054,-2.2022,-2.2021,-2.2028,-2.2014,-2.2011,-2.1989,-2.1971,-2.1961,-2.1927,-2.1934,-2.1894,-2.1904,-2.1881,-2.1878,-2.1866,-2.1867,-2.1867,-2.1824,-2.1892,-2.1995,-2.2005,-2.1866,-2.1865,-2.1864,0,-2.2126,-2.2114,-2.2125,-2.2117,-2.2079,-2.2086,-2.207,-2.2047,-2.2042,-2.2029,-2.2026,-2.2015,-2.2009,-2.2002,-2.1966,-2.194,-2.1982,-2.1938,-2.1969,-2.197,-2.1981,-2.1981,-2.2087,-2.1976,-2.1976,-2.1976,-2.1976,0,-2.2199,-2.2214,-2.2161,-2.2169,-2.2185,-2.2142,-2.216,-2.2139,-2.2119,-2.2123,-2.2079,-2.2083,-2.2035,-2.2035,-2.2007,-2.2022,-2.2019,-2.2006,-2.1999,-2.2011,-2.2013,-2.201,-2.2005,-2.1979,-2.1978,-2.1978,-2.1977,0,-2.2291,-2.2256,-2.2266,-2.223,-2.2221,-2.2235,-2.2205,-2.2211,-2.2185,-2.2191,-2.219,-2.215,-2.2148,-2.2112,-2.2101,-2.2083,-2.2109,-2.2092,-2.2117,-2.2112,-2.2146,-2.2144,-2.2255,-2.2269,-2.2148,-2.2149,-2.215,0,-2.234,-2.2351,-2.2317,-2.2317,-2.2304,-2.2303,-2.2298,-2.2257,-2.2254,-2.2231,-2.2241,-2.2235,-2.2228,-2.2227,-2.2198,-2.2191,-2.2175,-2.2214,-2.2173,-2.2186,-2.2178,-2.2179,-2.2181,-2.2224,-2.2225,-2.2226,-2.2227,0,-2.2433,-2.2416,-2.241,-2.24,-2.2396,-2.2386,-2.2372,-2.2375,-2.2329,-2.2329,-2.2326,-2.2321,-2.2311,-2.2307,-2.2295,-2.228,-2.2247,-2.2241,-2.2248,-2.2261,-2.2276,-2.2271,-2.2143,-2.2238,-2.2237,-2.2236,-2.2236,-2.2235,-2.2506,-2.2515,-2.2493,-2.2489,-2.2476,-2.2465,-2.247,-2.2446,-2.2443,-2.2432,-2.2408,-2.241,-2.239,-2.2371,-2.2359,-2.2361,-2.2341,-2.235,-2.2353,-2.2357,-2.2365,-2.2274,-2.2358,-2.2358,-2.2357,-2.2357,-2.2357,0,-2.2598,-2.2582,-2.258,-2.2564,-2.2562,-2.2531,-2.2515,-2.2516,-2.2518,-2.2503,-2.2497,-2.2496,-2.2492,-2.2464,-2.2457,-2.2465,-2.245,-2.2464,-2.2464,-2.2462,-2.2381,-2.2377,-2.2477,-2.2477,-2.2477,-2.2477,-2.2477,-2.2477,-2.2646,-2.266,-2.2641,-2.2648,-2.2631,-2.2633,-2.2628,-2.2619,-2.2606,-2.2607,-2.2604,-2.2585,-2.2565,-2.2557,-2.2553,-2.2545,-2.2546,-2.2566,-2.2553,-2.2479,-2.2467,-2.2456,-2.2452,-2.2566,-2.2566,-2.2634,-2.2635,-2.2635]},{"header":{"parameterUnit":"m.s-1","parameterCategory":1,"la1":30.2991,"la2":30.254,"lo1":-89.0895,"lo2":-89.0444,"dy":0.0017,"dx":0.0017,"nx":28,"ny":28,"refTime":"2024-10-11T21:00:00:Z","depth":0,"parameterNumber":3,"parameterNumberName":"V-component_of_WINDS"},"data":[0,0,0,0,0,0,0,0,0,0,0,0,0,0,0,0,0,0,0,0,0,0,0,0,0,0,0,0,0,0,0,0,0,0,0,0,0,0,0,0,0,0,0,0,0,0,0,0,0,0,0,0,0,0,0,0,0,0,0.5101,0.5101,0,0.5162,0.5163,0.5164,0.5198,0.5198,0.5198,0.5198,0.5259,0.526,0.5262,0,0,0,0,0,0,0,0,0,0,0,0,0,0.5008,0.501,0.5101,0.5101,0.5102,0.5162,0.5163,0.5164,0.5198,0.5198,0.5198,0.5198,0.5258,0.526,0.5262,0,0,0,0,0,0,0,0,0,0,0,0,0,0.5057,0.501,0.51,0.5126,0.5129,0.5162,0.5163,0.5164,0.5198,0.5198,0.5198,0.5198,0.5258,0.526,0.5262,0.5273,0,0,0.5269,0.527,0,0,0,0,0,0,0,0,0.5054,0.506,0.5122,0.5125,0.5128,0.5173,0.5153,0.52,0.5198,0.5172,0.5198,0.5198,0.523,0.5234,0.5246,0.5276,0.5278,0.5269,0.5271,0.5272,0.5272,0,0,0,0,0,0,0,0.5051,0.5058,0.5125,0.5123,0.5126,0.5134,0.5141,0.5162,0.5199,0.5174,0.5177,0.5184,0.5232,0.5243,0.5247,0.5279,0.5269,0.5271,0.5273,0.5274,0.5318,0.5318,0,0,0,0,0,0,0.5044,0.5055,0.5123,0.5127,0.5091,0.5135,0.5143,0.5158,0.5199,0.5205,0.5183,0.5185,0.5239,0.5245,0.525,0.5263,0.5272,0.5274,0.5275,0.5318,0.5318,0.5318,0,0,0,0,0,0,0.5042,0.5049,0.512,0.5091,0.5101,0.5137,0.5153,0.5159,0.5171,0.5206,0.5213,0.5189,0.524,0.5246,0.5266,0.5266,0.5275,0.5277,0.5319,0.5318,0.5318,0.5291,0,0,0,0,0,0,0.5039,0.5048,0.5054,0.5091,0.5103,0.5138,0.5153,0.516,0.5175,0.5178,0.5213,0.5219,0.524,0.5263,0.5269,0.5269,0.5279,0.5319,0.5319,0.5318,0.5292,0.529,0.5288,0,0,0,0,0,0.5035,0.5044,0.5054,0.5062,0.5111,0.5138,0.5144,0.5169,0.5175,0.518,0.5202,0.5218,0.5265,0.5265,0.5271,0.5272,0.5319,0.5319,0.5318,0.5293,0.529,0.5288,0,0,0,0,0,0,0.5006,0.505,0.5061,0.5083,0.5106,0.5143,0.5151,0.5166,0.5187,0.5189,0.5218,0.5226,0.5243,0.526,0.5259,0.5283,0.5293,0.5294,0.5272,0.527,0.5268,0.5263,0.5281,0,0,0,0,0,0.5002,0.5021,0.5058,0.5073,0.5084,0.5115,0.5128,0.5145,0.517,0.518,0.5204,0.5227,0.5247,0.5259,0.5279,0.5295,0.5302,0.5298,0.5296,0.5294,0.5295,0.5302,0.53,0.5317,0.5317,0.5317,0,0,0.4994,0.502,0.5031,0.5068,0.5088,0.5106,0.5124,0.5142,0.5155,0.5183,0.5203,0.5221,0.5248,0.5265,0.5274,0.528,0.5291,0.5294,0.5292,0.5294,0.5301,0.5299,0.5298,0.5316,0.5317,0.5317,0,0,0.4988,0.5011,0.5025,0.5044,0.5075,0.5095,0.5098,0.5132,0.5145,0.5166,0.5186,0.5201,0.5235,0.5253,0.5267,0.5265,0.5279,0.527,0.5259,0.5266,0.5264,0.5263,0.5261,0.526,0.527,0.527,0.527,0,0.4975,0.5004,0.503,0.5047,0.5062,0.5088,0.5101,0.5118,0.5153,0.5162,0.5168,0.5209,0.523,0.525,0.5249,0.526,0.5263,0.5267,0.5262,0.5262,0.5261,0.5259,0.5258,0.5269,0.5269,0.5269,0.5269,0,0.4984,0.5003,0.5011,0.5044,0.5059,0.5074,0.5101,0.5114,0.5129,0.5147,0.5166,0.5191,0.5216,0.5222,0.5237,0.5244,0.5246,0.5257,0.5268,0.5258,0.5256,0.5256,0.5267,0.5268,0.5268,0.5268,0,0,0.4964,0.5009,0.5011,0.5025,0.5059,0.5074,0.5089,0.5113,0.5122,0.5144,0.5156,0.5183,0.5192,0.5207,0.5224,0.523,0.5224,0.524,0.5241,0.5235,0.5231,0.5222,0.5221,0.5234,0.5234,0.5234,0.5228,0,0.4963,0.4992,0.5015,0.5034,0.5051,0.5074,0.5086,0.5107,0.5124,0.514,0.5158,0.5176,0.5188,0.5197,0.5204,0.5224,0.5224,0.5224,0.5244,0.5244,0.5236,0.522,0.5212,0.5205,0.5228,0.5228,0.5227,0,0.4966,0.4986,0.5008,0.5037,0.5045,0.5056,0.5078,0.5094,0.5116,0.5128,0.5144,0.5161,0.5176,0.5184,0.5204,0.5204,0.5213,0.5223,0.5223,0.5226,0.5235,0.5221,0.5204,0.5202,0.5227,0.5227,0.5227,0,0.4947,0.498,0.4997,0.5008,0.5043,0.505,0.5064,0.5088,0.51,0.5119,0.5127,0.5147,0.5158,0.5173,0.5194,0.5199,0.5211,0.5222,0.5219,0.5219,0.5221,0.522,0.5204,0.5228,0.5228,0.5228,0.5228,0,0.4943,0.4955,0.4988,0.4998,0.5011,0.5036,0.5048,0.5064,0.5084,0.5096,0.5117,0.5128,0.5156,0.517,0.5186,0.5198,0.5204,0.5212,0.5216,0.521,0.5209,0.5216,0.5217,0.5228,0.5228,0.5228,0.5228,0,0.4925,0.4948,0.4967,0.4998,0.5006,0.5013,0.5039,0.5049,0.5066,0.5081,0.5086,0.5113,0.5129,0.5152,0.5176,0.5187,0.5196,0.5204,0.5189,0.5191,0.5187,0.5186,0.5174,0.5172,0.5198,0.5198,0.5198,0,0.4921,0.493,0.4961,0.4971,0.4985,0.5,0.5012,0.5036,0.5047,0.5073,0.5078,0.5097,0.5113,0.5138,0.5159,0.5176,0.5183,0.5178,0.5186,0.5179,0.5182,0.518,0.518,0.5175,0.5175,0.5175,0.5174,0,0.491,0.492,0.4937,0.4957,0.4971,0.4988,0.5005,0.5012,0.5039,0.505,0.5068,0.508,0.5103,0.512,0.514,0.5154,0.5168,0.5171,0.5172,0.5165,0.5155,0.5159,0.5182,0.5172,0.5172,0.5172,0.5172,0.5172,0.4899,0.4907,0.4929,0.4946,0.4962,0.4977,0.4986,0.5004,0.5019,0.504,0.5053,0.5069,0.5089,0.5117,0.5129,0.5141,0.5147,0.5148,0.5148,0.5147,0.5144,0.5154,0.5145,0.5145,0.5145,0.5145,0.5145,0,0.4888,0.4903,0.4918,0.4941,0.4954,0.4966,0.4985,0.4995,0.5009,0.5026,0.5041,0.5059,0.5075,0.5096,0.5113,0.5118,0.5125,0.5122,0.5121,0.5123,0.5139,0.5136,0.5116,0.5116,0.5116,0.5116,0.5116,0.5116,0.4884,0.4898,0.491,0.4931,0.4945,0.4961,0.4971,0.4984,0.4998,0.5017,0.503,0.5044,0.5062,0.508,0.5094,0.51,0.5104,0.5099,0.5106,0.512,0.5123,0.5125,0.5123,0.51,0.51,0.509,0.509,0.509]}]]